NOAA 16 DEB, 42371

Orbit data source: Space-Track

NOAA 16 DEB, 42371 is space debris in SSO originally from a launch on Thu, 21 Sep 2000 UTC launched from the Air Force Western Test Range (AFWTR). Debris objects in space refer to the collection of defunct objects orbiting the Earth. Examples of debris include non-operational satellites, rocket bodies, and fragments generated from explosions, collisions, or faulty payload assembly.

Loading next visibility...
Identifier
42371, 2000-055RP
Orbit
SSO
Country
Flag of USUS
Related business
Manufacturer
Unknown
Mission
Spacecraft
Bus & Motor
Unknown
Mass
Unknown
Launch date (UTC)
2000-09-21 (26 years ago)
Launch vehicle
Unknown
Launch site
Air Force Western Test Range (AFWTR)
Object type
Payload
Rocket body
Debris
Shape & HBR
Unknown shape, 0.1 m
Radar Cross Section
Small (<0.1 m²)

Expand to show TLE details & history
Last TLE update: 3 days ago

TLE from 3 days ago
0 NOAA 16 DEB
1 42371U 00055RP  26124.05191691  .00011466  00000-0  23494-2 0  9996
2 42371  99.0708  53.3063 0028514 198.0720 161.9466 14.60663935536133
Epoch: 2026-05-04T01:14Z
TLE epoch observation values (Epoch: 2026-05-04T01:14:45.621Z)
Latitude
-0.00005°
Longitude
172.66956°
Altitude
713.163 km
Speed
7.489 km/s
True Right ascension
03h 33m 13s
True Declination
0° 00' 00"
Sunlit
Object was in daylight at epoch
Visualization orbit readout
Latitude
Unknown
Longitude
Unknown
Altitude
Unknown
Speed
Unknown
Apparent Right ascension
Unknown
Apparent Declination
Unknown
Sunlit
N/A
Visualization observer readout
Local Sidereal Time
18:46:18
Azimuth
Unknown
Elevation
Unknown
Doppler factor
Unknown
Orbital elements
Apogee altitude
708.302 km
Perigee altitude
668.005 km
Semi-major axis
7,066.29 km
Eccentricity
0.00285
Inclination
99.0708°
RAAN
53.3063°
Arg. of periapsis
198.072°
True anomaly
162.04752°
Mean anomaly
161.9466°
Eccentric anomaly
161.99709°
Mean motion
3.65389 °/min
Orbital period
98.53 mins
BSTAR
0.0023494
Loading maneuver chart data...
Computing Atmospheric mass density...

Documentation

Showing up to 5 results
|